This is the latest recevied weather packets stored in our database for station/object N7JP. If no packets are shown the sender has not sent any weather packets the latest 1 day(s).
| Time | Temp. | Humidity | Pressure | Rain* | Wind** | Luminosity | Snow |
|---|---|---|---|---|---|---|---|
| 1778094115 | 12.22° C | 90% | 1015 hPa | 0 mm | - | - | - |
| 1778091411 | 11.67° C | 90% | 1014.9 hPa | 0 mm | - | - | - |
| 1778087782 | 11.67° C | 90% | 1014.3 hPa | 0 mm | - | - | - |
| 1778085975 | 11.67° C | 90% | 1014.5 hPa | 0 mm | - | - | - |
| 1778085059 | 11.67° C | 90% | 1014.5 hPa | 0 mm | - | - | - |
| 1778081441 | 11.67° C | 90% | 1014 hPa | 0 mm | - | - | - |
| 1778075092 | 10.56° C | 87% | 1013.7 hPa | 0 mm | - | - | - |
| 1778073291 | 10.56° C | 87% | 1013.9 hPa | 0 mm | - | - | - |
| 1778072383 | 10.56° C | 87% | 1013.7 hPa | 0 mm | - | - | - |
| 1778066931 | 10° C | 87% | 1013.1 hPa | 0 mm | - | - | - |
| 1778066031 | 9.44° C | 87% | 1012.9 hPa | 0 mm | - | - | - |
| 1778064219 | 8.89° C | 88% | 1012.5 hPa | 0 mm | - | - | - |
| 1778063319 | 8.89° C | 89% | 1012.5 hPa | 0 mm | - | - | - |
| 1778061506 | 8.89° C | 90% | 1012.3 hPa | 0 mm | - | - | - |
| 1778060601 | 8.89° C | 90% | 1012.2 hPa | 0 mm | - | - | - |
| 1778059700 | 8.89° C | 90% | 1012.2 hPa | 0 mm | - | - | - |
| 1778058800 | 8.89° C | 90% | 1012.1 hPa | 0 mm | - | - | - |
| 1778057902 | 9.44° C | 90% | 1012.2 hPa | 0 mm | - | - | - |
| 1778053389 | 10° C | 91% | 1011.4 hPa | 0 mm | - | - | - |
| 1778051588 | 10° C | 91% | 1011.3 hPa | 0 mm | - | - | - |
| 1778050661 | 10° C | 91% | 1011.2 hPa | 0 mm | - | - | - |
| 1778047936 | 11.11° C | 90% | 1011.1 hPa | 0 mm | - | - | - |
| 1778046107 | 11.67° C | 89% | 1010.9 hPa | 0 mm | - | - | - |
| 1778044307 | 11.67° C | 90% | 1010.6 hPa | 0 mm | - | - | - |
| 1778042477 | 12.22° C | 86% | 1010.2 hPa | 0 mm | - | - | - |
* Rain latest hour (hover to see other rain measurements)
** Current wind speed in m/s (hover to see current wind gust speed)